Wind_Speed
17 19 21 21 20 21 19 12 4 1 4 4 4 5 6 6 7 9 10 11 10 9 7 5 6 7 10 12 14 17 18 20 22 24 25 26 27 29 32 35 36 37 37 35 34 34 33 29 27 28 29 28 26 25 24 24 24 24 25 25 24 24 23 21 20 18 16 14 13 11 9 8 7 6 6 6 6 6 7 8 9 9 9 9 11
16 18 18 19 18 19 19 14 7 1 4 6 5 7 8 8 10 11 11 10 9 8 7 7 7 7 9 12 15 18 19 20 24 27 26 25 26 28 30 33 35 37 36 34 34 34 31 28 28 29 28 27 26 25 25 26 26 26 25 25 24 22 21 19 18 16 15 13 11 10 8 7 4 3 4 6 7 7 8 9 9 9 9 10 12
16 16 16 18 17 17 18 15 9 4 4 6 7 8 10 11 13 14 12 10 9 8 7 7 7 6 7 11 15 19 21 22 26 28 26 23 24 26 29 33 36 37 36 34 34 32 30 29 29 29 28 27 25 25 26 26 26 25 24 23 22 20 19 18 16 15 13 12 10 9 8 6 3 3 5 7 8 8 8 8 8 10 11 13 15
16 15 14 16 17 15 16 14 10 6 3 5 8 9 12 14 16 15 13 11 9 8 7 7 7 4 5 9 15 19 22 24 26 26 24 21 22 25 30 35 38 37 35 34 33 31 29 30 30 28 27 25 24 25 26 26 25 24 22 21 19 18 17 16 15 13 12 10 8 7 6 6 4 5 7 8 8 7 8 9 11 12 14 15 16
16 14 12 14 15 14 15 14 10 7 5 4 7 10 13 17 18 15 13 11 10 9 8 7 6 4 3 8 15 18 22 24 25 24 23 21 22 26 32 36 38 36 34 33 31 30 30 30 28 26 25 24 24 25 25 24 23 22 21 19 18 17 17 16 15 14 11 10 8 7 7 7 7 8 9 9 8 8 10 11 13 13 14 14 15
17 13 10 12 14 13 14 14 10 6 5 5 6 9 13 17 18 16 13 12 11 10 8 6 5 4 4 8 14 17 20 23 24 23 22 22 25 30 35 37 36 35 32 31 30 30 30 29 27 26 25 24 24 24 23 22 21 21 20 19 17 17 16 15 15 13 12 10 9 8 8 8 9 10 11 12 12 12 12 12 13 14 15 16 17
18 12 8 10 12 12 12 13 10 5 3 5 6 9 13 16 17 16 14 12 11 10 9 7 7 6 6 9 13 16 18 20 21 22 23 24 28 33 37 37 35 32 30 30 29 29 29 28 26 26 25 23 23 22 21 20 19 19 19 18 17 15 13 13 12 10 10 10 9 9 9 10 11 11 12 13 14 14 15 15 16 17 18 19 20
19 14 8 8 10 11 12 13 11 6 3 5 8 10 13 15 15 15 14 13 12 11 9 7 8 8 9 11 13 16 18 18 20 23 25 27 31 36 38 36 33 30 29 29 28 28 27 25 24 24 24 23 22 21 19 17 16 16 16 16 15 13 11 10 9 8 8 9 9 10 11 12 13 14 15 15 16 17 17 18 19 21 21 22 22
22 18 13 11 11 12 13 13 13 9 4 6 9 13 15 15 14 14 14 14 13 12 9 7 8 10 11 12 14 16 18 19 21 24 26 29 33 38 38 34 30 29 29 28 27 26 25 24 23 23 22 21 21 19 16 15 14 14 13 13 12 10 9 8 8 8 9 10 11 12 13 14 15 17 18 19 19 20 21 22 23 24 25 24 25
25 22 18 14 13 14 14 15 15 12 7 6 10 14 18 18 15 13 14 14 14 13 10 7 8 11 13 14 15 17 18 20 22 25 28 32 36 38 35 31 29 29 28 27 25 25 24 24 23 22 20 19 18 16 14 13 13 12 11 10 10 9 9 9 9 10 11 11 13 14 15 16 18 19 20 22 23 24 25 26 27 28 28 30 32
27 22 19 16 15 16 16 17 17 15 11 8 9 14 19 20 18 15 14 14 15 15 12 8 9 12 14 16 17 18 19 21 24 27 31 34 35 34 31 28 27 28 27 25 23 23 22 22 21 19 18 17 16 15 13 13 12 11 9 9 9 10 10 11 11 12 13 14 15 17 18 19 20 21 23 24 26 27 28 29 30 31 32 34 35
31 24 20 19 19 19 18 17 18 17 13 10 10 13 18 21 20 18 17 16 16 17 14 11 11 14 16 16 18 19 20 22 26 30 32 33 32 30 28 27 27 26 25 23 21 21 21 20 19 18 16 15 14 14 14 13 11 10 9 9 10 11 13 14 14 15 16 17 18 20 21 22 23 24 26 27 29 30 31 32 34 34 35 36 37
36 30 25 23 22 22 19 17 18 18 15 11 11 12 17 20 21 19 18 18 18 19 17 14 14 16 17 18 19 20 21 23 27 30 31 30 29 28 27 26 25 24 22 21 20 20 20 20 18 17 16 16 15 15 15 14 12 11 10 11 13 14 15 17 17 18 19 20 22 23 25 26 26 27 29 30 31 33 34 36 37 37 37 38 38
39 35 30 26 25 24 21 19 19 19 16 13 12 13 16 19 21 21 20 20 20 20 19 17 16 16 18 20 20 21 22 24 26 28 28 28 28 27 27 25 23 21 21 21 21 20 20 19 19 18 18 18 17 17 17 15 13 13 13 14 15 16 17 18 20 21 23 24 25 26 28 29 30 31 32 33 34 35 37 38 39 40 40 40 40
40 38 35 31 29 27 24 21 20 20 19 15 13 14 17 19 21 22 22 21 21 21 20 19 18 17 18 20 21 22 23 24 25 26 26 27 27 27 26 25 23 22 22 22 21 21 21 20 19 19 20 21 20 19 19 18 17 17 18 19 20 21 22 23 25 26 27 28 29 30 30 31 32 34 35 36 37 38 39 40 41 42 43 43 43
39 38 37 36 34 32 28 25 23 22 21 19 16 16 18 20 21 22 23 23 22 22 22 20 19 18 17 18 19 20 22 24 26 26 27 27 27 27 26 26 25 24 24 24 24 23 23 22 21 21 22 23 22 22 22 23 23 23 23 24 25 26 27 28 29 30 31 32 33 34 34 34 36 37 39 39 40 41 42 43 44 45 45 45 44
44 41 39 37 35 34 33 30 26 24 24 22 20 18 17 20 22 23 24 25 24 24 24 23 21 20 19 18 18 19 21 23 26 27 28 29 29 29 28 27 26 26 26 26 26 25 25 24 23 23 24 24 25 25 25 26 27 27 27 27 29 30 31 33 34 34 35 36 37 37 37 37 38 40 41 42 43 44 45 46 47 47 47 46 46
50 48 45 41 38 36 37 36 31 28 26 24 22 20 18 19 23 24 25 26 27 26 25 25 24 23 22 21 20 19 20 22 25 27 29 29 30 29 29 29 29 29 28 28 27 26 25 24 24 25 25 26 27 27 27 28 29 30 30 31 32 33 35 37 38 38 39 39 39 40 40 40 41 43 44 45 46 47 48 49 49 49 48 48 48
54 52 49 46 42 40 40 41 37 32 30 27 24 24 22 20 23 28 30 30 28 27 26 26 26 26 26 25 24 23 22 23 24 27 29 30 31 31 31 31 31 31 31 30 29 27 26 26 26 26 26 27 27 28 29 31 32 32 33 34 35 38 40 42 43 43 43 43 43 44 44 43 44 46 47 48 49 49 50 51 51 50 51 51 52
57 55 52 49 46 43 42 42 41 37 33 29 26 26 25 23 24 29 32 31 29 27 25 25 26 27 28 28 28 27 26 25 26 26 28 30 32 33 33 33 33 32 32 32 31 30 29 28 28 28 28 29 30 31 33 35 35 36 37 38 40 43 45 47 48 47 47 47 47 48 48 46 46 49 50 50 51 52 52 53 53 53 54 55 56
59 57 55 52 49 46 44 43 42 41 36 30 27 28 28 26 25 28 31 31 29 27 25 24 26 28 29 30 30 30 30 30 29 28 28 29 30 32 34 34 34 34 34 34 33 33 32 31 31 31 31 32 33 35 37 39 39 39 40 41 43 46 49 50 51 50 49 49 51 52 52 51 51 53 53 54 54 55 55 55 55 56 57 58 59
59 59 58 57 54 50 47 44 44 43 38 32 30 30 30 28 28 29 31 29 27 27 28 30 32 34 35 34 33 32 33 33 32 32 32 31 31 32 33 34 35 36 37 37 37 35 35 34 35 34 34 35 37 38 40 42 42 42 44 44 43 45 48 51 52 51 50 52 54 55 54 55 56 57 57 57 57 58 58 58 58 59 60 61 62
61 59 60 60 58 54 50 48 46 44 41 36 33 32 31 29 29 31 31 28 28 31 35 36 38 40 40 38 36 35 35 35 35 35 34 34 35 35 35 36 37 38 39 39 38 37 37 38 39 39 39 40 40 41 42 44 45 45 45 44 44 44 45 49 51 52 53 56 59 58 54 54 57 58 58 59 61 62 63 63 62 63 64 66 67
65 62 61 61 61 58 54 51 49 47 44 40 37 35 33 32 32 33 33 31 31 37 41 42 41 41 41 40 38 37 37 37 36 36 35 35 36 37 38 39 40 41 41 41 40 40 41 42 43 43 44 44 44 44 45 47 48 47 45 45 47 48 49 52 56 58 59 61 63 62 58 57 58 59 60 62 64 65 65 65 66 67 69 71 72
70 67 63 62 63 61 57 53 52 50 48 45 42 39 36 35 35 36 36 35 37 41 44 44 42 42 42 42 41 40 39 39 39 38 37 37 38 38 39 41 42 43 43 42 43 43 44 45 46 47 47 47 47 47 47 48 48 47 46 46 48 51 53 56 58 61 61 60 61 62 62 61 61 60 60 62 63 65 67 68 70 72 73 74 74
73 71 67 64 64 64 60 56 54 53 50 48 47 44 41 39 38 38 37 37 40 42 42 42 43 42 41 42 43 42 41 40 41 41 40 39 40 41 41 42 43 44 44 44 44 45 45 46 46 47 47 47 47 47 48 49 48 47 47 48 49 52 57 58 59 62 62 59 59 61 61 60 59 59 61 64 66 68 71 72 73 74 75 75 77
75 75 72 67 66 65 62 59 57 56 53 51 49 47 44 43 41 39 37 37 39 40 38 39 42 43 41 41 43 44 43 43 44 45 44 43 42 42 43 44 43 43 44 45 45 45 45 45 44 43 44 45 45 46 47 49 48 46 48 50 50 51 55 57 59 63 64 60 60 61 60 59 61 65 68 69 70 71 73 73 75 76 77 78 80
75 77 76 72 69 67 64 60 58 58 56 54 52 49 45 43 43 41 39 38 38 36 34 36 40 42 42 41 42 44 45 46 47 47 47 46 45 45 46 46 44 42 44 45 45 45 45 45 43 42 43 44 44 46 47 48 49 48 51 54 53 49 49 53 57 61 62 61 62 62 63 65 69 71 72 72 72 74 75 76 77 78 79 80 81
75 78 79 77 73 69 66 62 60 59 58 57 56 53 48 45 45 44 42 40 37 34 35 37 39 40 40 41 43 44 46 49 50 50 49 48 47 46 47 47 45 43 43 44 45 45 47 47 46 46 45 44 44 46 47 49 50 51 52 55 56 54 52 53 55 56 58 60 64 67 70 72 73 73 73 74 75 77 77 78 79 80 81 82 83
75 76 80 81 78 73 69 66 63 61 60 59 59 57 53 49 47 47 44 42 39 38 39 40 41 41 41 42 43 42 43 46 49 51 51 51 49 48 48 46 45 44 44 45 46 45 46 47 47 48 48 47 46 48 48 49 50 51 51 53 57 59 59 59 60 62 64 67 71 74 76 76 75 74 76 77 79 80 80 81 82 82 83 84 85
75 75 78 82 82 78 74 70 67 64 62 61 61 60 57 54 51 50 47 45 44 44 43 43 44 45 43 41 39 39 41 44 46 47 49 51 51 50 50 49 49 48 48 48 49 48 46 46 46 47 49 50 51 52 53 55 55 55 55 56 58 60 62 64 67 68 70 72 74 75 76 76 76 77 78 80 81 82 82 83 84 84 85 86 88
75 75 76 79 83 82 79 75 71 68 65 63 62 62 60 58 56 53 51 50 49 48 48 47 47 46 45 44 42 41 41 43 46 47 48 51 51 50 49 50 50 50 49 49 50 50 50 48 48 48 49 51 53 55 56 58 59 59 59 60 61 62 64 66 67 68 69 71 72 74 75 76 77 79 80 82 84 84 85 86 86 87 88 90 92
73 76 76 77 80 81 81 78 75 72 69 66 65 64 63 63 61 58 57 55 52 50 50 50 47 45 46 49 52 50 46 44 44 45 47 49 51 52 52 52 52 51 50 50 51 52 53 52 52 52 53 54 56 58 59 60 61 62 63 64 65 66 68 68 68 69 70 71 73 74 76 77 79 81 83 85 86 87 88 88 89 90 91 94 96
67 73 76 77 78 78 78 78 77 75 73 70 68 67 66 66 64 63 62 58 52 49 50 51 49 47 47 49 53 54 52 49 47 45 45 47 48 50 52 54 55 54 53 53 54 54 55 56 56 57 59 60 61 62 63 64 65 66 67 67 68 69 69 70 70 71 72 73 75 76 77 79 81 83 85 86 88 89 89 90 91 92 94 96 97
62 65 68 72 76 77 76 76 77 77 75 73 70 68 68 67 65 64 65 62 57 55 56 57 57 56 56 56 56 56 55 54 53 51 50 49 50 50 51 53 55 55 54 54 56 56 56 56 56 58 60 62 63 63 64 65 66 66 67 68 69 70 70 71 72 73 74 75 77 77 79 80 82 84 86 88 89 90 91 92 93 94 95 97 99
58 61 62 64 70 74 75 75 75 76 76 75 73 71 69 68 66 66 68 68 66 65 66 65 63 62 63 63 61 59 58 58 58 57 55 53 52 53 53 54 56 56 55 56 57 57 57 57 57 57 59 60 61 62 63 64 65 66 66 67 69 70 70 71 72 73 75 76 78 79 81 83 84 86 88 90 91 92 93 94 94 96 97 99 100
56 59 60 60 64 69 73 73 73 74 76 76 76 74 72 70 67 67 69 72 70 68 71 73 70 66 65 66 65 61 58 59 60 60 58 55 53 53 54 55 57 59 60 60 61 61 60 60 59 59 60 61 61 62 63 65 66 67 69 70 71 71 72 73 74 75 77 79 81 82 84 86 87 88 89 91 92 93 94 95 96 97 98 100 101
53 57 58 58 60 65 69 70 70 72 74 75 75 74 73 72 70 67 68 71 70 67 68 72 73 70 68 69 69 65 61 60 61 61 60 56 54 54 56 58 60 62 63 64 65 65 65 65 65 64 65 65 65 66 67 67 68 69 70 71 73 74 74 75 76 78 79 81 82 84 85 86 87 88 90 92 94 95 96 97 99 100 101 103 106
51 56 57 57 57 61 66 68 68 69 70 71 71 70 69 70 70 68 67 71 74 71 69 69 71 70 69 70 72 72 69 65 64 64 64 62 59 57 59 61 62 63 65 66 67 67 68 69 70 70 69 68 68 68 69 69 69 70 72 73 74 75 76 76 76 77 79 80 82 84 85 86 88 90 92 94 96 98 99 101 103 105 107 109 111
49 52 55 55 55 58 63 66 67 68 68 68 67 66 64 63 64 65 65 68 74 78 77 75 73 72 71 70 72 75 77 75 72 70 71 72 70 67 66 66 65 64 65 66 66 68 69 70 71 72 71 70 70 70 70 70 71 72 72 73 74 75 75 76 76 77 79 81 83 85 87 89 91 93 95 97 99 101 104 106 108 110 112 114 116
48 49 50 52 53 56 60 63 65 67 67 66 66 66 64 62 62 63 63 65 69 75 80 81 80 79 78 76 75 76 78 80 80 79 79 80 80 77 74 72 71 69 68 67 67 69 70 71 72 73 73 73 72 72 71 71 71 72 73 73 74 75 76 77 78 79 81 83 85 88 90 92 95 97 100 102 104 106 108 110 112 115 117 119 121
49 50 50 50 50 52 55 60 64 66 67 67 66 67 66 65 64 64 64 65 67 71 76 80 82 84 85 85 83 81 81 81 83 84 85 86 87 84 80 78 76 75 73 72 72 72 71 72 72 73 74 74 74 74 74 74 74 75 76 77 77 78 79 80 81 83 85 88 90 93 95 98 100 102 105 107 109 111 113 115 117 118 120 121 122
50 51 51 51 50 49 51 55 60 63 66 66 67 68 68 67 66 65 64 65 67 70 73 76 78 82 86 87 88 87 85 84 84 84 86 88 89 88 85 83 82 80 79 77 76 75 74 73 73 73 73 73 74 75 76 77 78 79 79 80 81 83 85 87 89 91 93 95 97 99 101 103 105 107 109 111 113 115 116 117 118 119 119 120 120
48 49 51 52 51 50 50 52 54 58 61 64 66 69 70 69 67 65 63 63 65 68 71 73 75 77 81 84 86 87 87 87 86 86 86 87 88 88 88 87 86 85 83 82 80 79 78 77 77 76 76 77 78 79 80 81 82 84 85 87 89 91 92 94 96 97 99 100 102 104 105 107 109 110 112 113 114 114 115 116 116 117 117 117 117
44 46 47 49 51 52 52 53 54 55 58 60 62 65 68 68 67 66 65 64 64 65 67 70 72 74 76 79 82 85 86 87 87 87 87 87 87 88 88 88 87 87 86 85 84 83 81 80 80 80 81 82 83 84 85 87 89 91 92 94 95 96 97 99 100 102 103 105 106 108 109 110 111 112 112 113 113 114 114 115 115 115 115 115 115
40 41 42 43 46 48 51 54 56 57 58 59 59 61 62 64 64 64 64 64 64 64 65 66 68 69 71 73 76 79 82 84 86 86 86 87 87 87 88 88 88 88 88 88 88 86 85 84 83 83 83 84 85 87 89 90 92 94 95 97 98 100 101 103 104 105 106 107 108 109 110 110 111 112 112 113 113 113 112 112 112 112 113 114 114
41 42 42 42 43 43 45 48 52 55 58 60 60 61 61 62 63 63 63 63 63 64 65 66 66 67 67 69 70 73 75 78 80 82 84 85 86 87 87 87 87 88 89 89 90 90 90 89 88 88 88 89 90 92 94 95 97 98 99 100 102 103 104 105 106 108 108 109 109 110 110 110 110 110 110 109 109 109 109 110 111 112 112 113 113
44 44 45 46 47 47 46 47 49 53 56 59 61 62 63 63 64 64 64 64 64 65 65 66 67 67 67 68 68 69 70 71 74 76 78 80 82 83 84 85 86 86 88 89 90 91 91 91 91 91 92 93 94 96 97 98 99 100 101 102 103 104 104 105 105 106 106 106 106 106 106 105 104 104 104 105 106 107 108 110 110 111 111 111 110
46 46 47 48 49 50 50 50 51 52 54 57 59 61 63 64 65 65 65 66 66 66 66 66 66 67 67 67 67 67 67 67 69 71 73 74 76 78 79 80 82 84 85 87 88 89 90 90 90 90 91 91 92 94 95 96 97 98 98 98 99 99 99 99 99 99 99 99 99 99 99 99 100 101 102 104 105 106 107 108 109 109 109 109 109
48 49 50 51 51 52 52 52 52 53 54 55 57 59 60 62 62 63 64 64 64 64 64 64 64 65 66 67 67 68 68 69 70 71 72 73 74 75 76 78 80 82 84 86 87 88 89 89 89 90 90 90 91 92 93 93 93 93 93 93 93 93 93 93 93 93 93 94 94 95 97 98 99 100 101 102 104 105 106 106 107 107 107 107 107
47 49 51 52 53 53 53 52 52 53 53 54 55 56 56 57 57 58 60 61 62 62 62 62 63 63 64 65 66 67 68 70 71 72 73 74 75 76 78 79 81 83 84 86 87 87 88 88 88 88 88 88 89 89 89 89 88 88 87 87 87 87 87 87 88 89 90 91 93 94 95 97 98 99 100 102 103 104 105 105 105 105 105 104 104
Wind_Direction
297 302 309 321 339 347 342 335 328 188 159 171 192 189 181 181 176 170 162 150 141 138 140 145 145 148 155 160 161 160 158 158 157 153 150 149 148 148 148 150 153 156 156 155 155 154 154 155 155 154 153 153 153 152 151 151 150 150 148 148 148 148 148 149 150 151 152 158 165 171 179 185 176 164 173 195 214 233 257 276 293 305 307 299 302
290 295 307 322 336 347 347 337 325 268 171 169 177 179 177 176 168 161 153 142 135 135 138 136 131 136 148 157 161 161 159 157 154 151 147 145 147 150 152 154 157 158 157 156 156 157 158 158 156 154 153 152 152 151 150 149 149 149 148 148 148 149 150 152 153 154 156 160 167 173 185 198 212 229 233 237 242 249 261 272 280 285 288 294 300
279 288 306 321 328 344 353 344 329 303 194 171 172 176 174 169 163 156 148 141 137 139 139 136 135 141 150 158 163 165 163 157 155 155 152 148 148 153 157 158 159 159 158 158 159 159 160 158 155 153 153 152 152 152 151 151 151 151 150 150 151 153 156 159 162 165 168 173 178 186 198 213 231 236 235 243 252 259 266 268 271 275 280 287 291
270 282 305 319 321 337 355 353 338 316 255 182 172 175 171 164 160 154 149 145 144 144 142 143 151 162 163 165 167 168 168 165 162 163 163 159 155 157 160 160 160 160 160 160 161 160 159 156 155 155 154 154 153 153 153 153 154 153 151 152 155 158 163 169 174 179 181 184 188 195 208 216 217 222 236 250 262 268 266 263 267 273 277 279 279
264 278 305 317 313 325 348 355 347 325 291 220 181 174 170 163 159 155 152 149 148 146 145 151 158 162 156 162 167 169 170 172 173 173 173 170 162 159 161 162 161 161 160 160 161 161 159 157 157 157 156 155 154 153 153 155 155 155 156 159 162 167 173 178 183 188 191 189 188 195 205 212 217 228 244 257 266 272 272 271 272 275 279 283 281
259 272 299 310 307 315 334 347 352 332 292 254 206 181 171 165 160 158 156 153 150 147 147 151 154 147 130 145 160 168 171 174 178 179 177 173 165 162 163 163 162 161 161 162 163 162 160 158 158 157 156 154 153 153 154 156 158 162 165 169 173 176 182 187 191 195 197 197 200 210 222 230 234 239 248 257 265 271 273 274 274 276 281 286 288
252 259 279 297 301 307 317 332 345 337 278 247 222 193 178 170 164 161 159 157 154 150 149 150 146 141 129 129 143 156 164 171 177 178 176 172 167 165 166 164 163 162 163 164 165 163 162 160 159 159 158 156 155 156 158 161 164 169 173 177 181 185 191 196 198 203 208 213 222 236 248 256 260 261 261 263 267 273 276 277 279 281 284 287 289
243 242 247 271 287 296 301 314 328 327 264 225 214 198 187 178 170 165 162 161 159 156 153 149 144 142 137 131 133 140 149 157 165 170 171 170 168 167 167 166 164 164 164 164 163 163 163 162 162 163 163 162 163 164 166 169 171 173 178 183 187 192 199 205 212 226 235 239 248 258 264 269 274 277 277 276 279 283 285 287 288 287 287 288 290
236 232 230 241 262 280 290 298 308 313 276 220 208 196 191 187 179 171 167 166 165 164 160 151 149 152 148 141 138 138 143 148 153 159 164 164 165 166 167 167 166 164 163 162 162 164 165 165 165 165 166 168 170 172 173 174 174 176 180 187 192 199 210 220 232 244 250 254 260 267 272 276 279 282 283 284 287 290 292 293 294 293 291 291 291
235 232 229 232 248 268 281 285 293 301 286 233 211 198 193 190 188 182 176 173 171 168 166 156 155 162 160 151 147 145 146 149 152 155 158 160 162 165 167 168 167 165 164 164 165 167 168 169 170 170 171 173 175 177 178 179 182 186 192 198 205 214 226 236 244 251 257 262 267 271 275 278 281 283 285 287 289 291 292 294 295 295 295 293 294
234 233 231 235 246 260 272 278 282 289 285 254 221 205 196 192 192 191 185 181 176 171 167 161 162 169 168 161 156 153 151 152 154 156 158 160 163 166 168 169 169 169 169 170 172 174 175 176 177 177 178 179 182 186 189 190 193 199 208 216 224 231 238 244 249 256 262 266 270 273 276 278 280 283 284 286 286 287 288 290 292 294 294 294 294
231 232 231 236 245 252 260 268 272 278 278 263 236 214 202 197 196 195 191 185 179 173 168 164 166 173 173 169 164 159 157 156 157 158 161 164 166 169 170 171 172 174 175 178 181 183 184 184 184 185 185 189 194 199 201 202 205 210 219 231 242 249 253 255 257 261 266 269 272 275 276 278 280 281 282 283 283 285 286 288 289 291 292 294 294
230 233 234 238 244 248 250 257 263 267 269 259 242 224 210 203 201 199 196 190 181 175 170 166 167 173 177 174 170 166 163 161 162 163 166 169 172 173 174 174 176 179 183 186 189 193 195 195 194 194 195 200 207 210 210 211 215 221 231 244 256 262 265 265 266 268 271 273 276 277 278 279 279 279 280 280 282 283 284 285 288 290 292 293 293
233 235 237 240 246 246 244 249 256 259 261 254 240 228 217 209 206 205 202 196 187 178 172 169 170 175 179 177 174 172 170 169 169 170 172 175 177 178 179 181 184 189 193 196 199 203 206 207 207 207 207 211 216 219 220 225 231 240 252 264 270 272 273 272 271 271 272 273 275 276 276 277 277 278 279 280 281 282 283 284 286 288 290 291 292
236 238 239 244 248 244 239 243 251 255 255 251 240 228 219 212 210 209 208 204 196 186 179 175 175 178 182 182 180 180 180 180 180 181 181 182 184 186 188 191 195 199 203 207 210 214 216 219 220 221 220 223 226 229 234 240 247 254 263 269 273 275 276 277 277 276 276 276 277 277 277 277 278 280 281 283 284 284 284 285 287 288 290 292 293
231 234 237 243 247 246 239 238 244 248 249 249 242 230 220 214 211 210 212 210 206 199 192 186 184 186 190 192 192 193 195 194 193 193 193 192 193 196 199 202 205 208 211 214 218 221 224 227 230 231 232 233 236 242 247 253 257 261 266 269 272 276 278 280 281 281 281 282 281 281 281 280 280 282 284 285 286 286 287 288 289 290 292 293 294
231 232 234 236 240 240 238 236 238 240 242 244 241 235 226 218 213 211 212 212 211 209 205 200 198 199 201 203 205 207 208 208 206 204 203 203 204 205 206 210 214 217 220 222 224 227 230 232 234 237 239 241 244 248 254 259 263 266 268 271 274 277 280 282 283 283 283 283 282 281 281 281 282 282 283 286 287 288 290 291 292 292 293 293 294
236 237 236 235 234 233 233 234 234 235 237 239 239 237 232 224 218 215 214 215 214 214 214 213 211 212 212 213 215 218 219 219 217 215 213 213 213 213 214 217 220 223 227 230 232 234 235 236 237 239 241 244 248 251 255 260 264 267 270 273 275 278 282 283 284 284 282 281 280 279 278 281 283 283 283 287 290 291 292 292 292 291 291 292 293
237 238 238 237 235 232 231 232 233 232 233 236 238 236 230 225 221 217 215 214 214 215 219 221 221 222 223 223 223 225 227 227 226 225 223 222 221 221 222 223 225 228 232 236 239 241 242 243 243 243 244 247 250 255 259 263 266 269 272 275 278 281 283 284 285 284 281 280 280 279 279 281 283 282 283 286 290 291 291 290 290 290 291 293 295
237 236 236 237 237 235 231 230 231 230 230 233 238 236 227 221 221 220 217 215 214 217 222 226 229 231 231 231 231 231 231 232 232 230 229 228 228 228 229 230 231 233 236 240 244 247 249 251 252 252 252 253 255 259 263 266 267 270 273 276 279 282 284 284 284 282 281 281 282 280 280 282 282 281 282 285 288 289 289 288 288 289 292 294 296
236 235 234 234 237 237 235 232 230 230 229 229 233 236 230 223 222 222 220 218 218 222 226 228 233 240 240 237 236 236 236 236 235 235 234 233 232 232 232 234 236 237 240 244 247 251 253 256 258 259 260 261 262 263 265 267 269 271 274 278 281 282 283 282 281 280 281 282 281 280 282 283 282 281 282 283 284 286 287 286 286 288 291 294 296
235 236 235 233 233 236 238 235 231 229 228 226 228 235 235 227 222 221 219 219 220 225 228 224 224 231 237 238 239 240 240 240 239 238 238 237 237 237 237 238 239 241 243 246 249 252 254 256 258 261 263 264 264 265 266 267 269 271 274 277 278 279 280 279 279 280 282 282 280 280 283 285 284 283 283 282 283 286 287 287 287 288 291 294 296
235 236 237 235 233 233 236 236 232 228 228 226 227 234 236 230 223 219 217 217 220 227 232 229 224 225 230 234 237 240 243 245 244 243 241 240 240 240 241 243 244 245 246 249 251 252 253 255 258 260 262 264 265 266 266 268 269 271 274 275 274 273 275 278 280 282 282 282 281 282 284 285 284 283 282 282 285 288 289 289 289 290 292 294 295
236 235 236 236 234 231 232 235 233 228 227 227 226 230 234 232 226 220 215 215 221 228 233 233 231 231 233 235 238 240 242 246 248 247 245 244 243 243 243 244 247 249 250 251 253 254 255 257 259 261 262 264 265 266 267 268 270 271 272 272 272 273 275 278 280 282 282 283 284 284 284 283 282 282 283 285 287 289 290 290 290 292 294 295 296
236 235 234 235 236 233 231 233 233 229 227 227 226 226 229 230 228 222 217 215 218 225 230 232 232 233 235 237 239 242 243 246 248 247 247 247 247 246 246 246 248 251 253 255 256 257 257 259 261 262 263 265 266 267 267 268 269 270 270 271 274 278 281 282 282 282 283 284 285 285 285 283 282 284 287 288 289 289 290 292 294 296 297 298 298
234 235 234 234 235 234 232 232 231 229 227 227 227 227 227 228 227 224 221 220 221 224 230 234 235 235 236 238 240 242 245 248 249 249 248 249 249 250 251 252 253 254 256 257 258 260 262 263 264 265 266 267 267 268 268 268 268 269 271 272 274 277 279 281 281 281 282 283 283 284 285 284 284 286 289 289 289 291 292 294 296 297 298 298 297
232 233 234 234 233 234 233 232 230 229 227 226 228 229 228 226 225 224 224 226 227 229 233 237 240 240 241 242 242 243 246 249 252 252 250 249 251 253 255 256 257 258 260 261 261 263 265 266 266 267 269 270 270 270 271 271 269 268 268 269 274 275 272 271 275 280 282 281 280 281 282 282 282 286 289 290 291 292 294 295 296 296 296 296 296
231 231 233 234 233 232 233 232 230 228 227 226 226 228 228 226 226 226 226 225 227 233 238 243 246 248 249 249 249 248 249 252 253 253 252 250 250 252 255 256 256 258 262 265 264 262 262 263 265 267 270 271 271 272 273 272 270 267 265 266 273 277 271 266 269 274 277 278 279 279 280 281 283 286 289 290 292 293 294 294 294 295 295 296 297
232 231 231 233 233 232 232 232 231 228 227 226 225 226 227 227 227 228 227 225 225 229 233 236 241 245 247 250 253 255 257 258 257 254 253 251 250 251 254 256 255 255 258 262 264 263 262 263 265 267 267 268 269 270 272 272 270 268 265 264 266 269 268 266 267 268 270 274 278 280 282 283 285 287 289 290 291 292 292 293 294 295 296 297 298
232 232 231 231 232 233 232 231 231 229 227 226 226 226 227 228 227 227 226 224 223 225 228 229 232 235 237 240 247 253 256 258 258 256 253 251 251 252 254 254 254 253 254 258 261 263 263 264 264 265 265 266 267 268 269 269 268 267 267 268 266 265 264 266 268 269 270 274 278 281 284 285 287 288 288 289 290 291 293 294 295 296 296 297 297
230 231 232 231 231 232 232 232 231 229 228 227 226 227 228 228 228 227 225 222 221 223 226 228 230 232 232 235 243 250 249 248 249 250 248 247 249 251 252 251 251 252 253 255 258 260 261 263 264 265 265 266 266 267 266 267 268 269 270 271 271 270 269 270 271 273 275 277 280 282 284 285 286 287 288 289 290 291 293 294 295 295 296 296 297
229 229 231 231 231 232 233 233 232 231 229 228 228 228 229 229 229 228 226 223 222 224 226 228 230 233 233 231 235 240 241 241 244 246 246 246 247 248 249 249 249 251 253 255 257 259 260 261 262 264 265 264 264 265 265 266 268 270 271 272 273 274 275 275 276 278 279 281 282 283 285 286 287 287 288 290 291 292 293 294 294 295 295 296 298
228 228 229 230 231 232 233 233 232 232 232 232 231 230 230 230 230 230 229 227 226 226 226 227 229 232 234 232 233 234 235 239 245 248 248 248 247 246 247 248 248 249 252 254 256 257 258 258 259 260 261 262 262 263 264 266 267 269 270 271 273 274 275 277 278 280 281 282 283 285 286 287 288 289 290 291 292 293 294 294 295 296 296 297 299
229 228 229 230 230 231 232 232 232 232 233 235 235 233 231 230 230 231 232 230 228 226 226 226 226 227 227 228 231 233 236 239 244 248 250 250 249 248 247 248 249 250 252 254 255 256 258 259 259 260 260 261 263 265 267 269 270 271 271 271 272 274 275 277 280 281 283 284 285 287 288 289 290 291 291 292 293 294 295 296 297 297 298 299 300
229 229 229 230 230 231 231 231 232 232 233 235 236 235 232 230 230 232 232 229 225 223 225 227 228 225 224 226 230 234 239 242 245 249 251 251 251 251 250 249 249 250 251 252 254 256 258 260 261 262 262 263 265 267 269 271 272 272 273 274 275 276 278 280 282 283 285 286 288 288 289 290 291 292 292 293 295 296 297 297 298 298 298 298 298
229 228 229 230 230 230 231 231 231 231 232 233 235 235 233 231 230 231 232 231 229 226 226 228 229 226 224 227 233 239 243 245 246 248 250 249 250 251 252 252 250 249 249 251 252 255 257 259 261 263 264 265 267 268 270 271 272 274 275 276 277 279 281 283 284 286 287 288 289 290 291 292 293 294 295 295 296 296 296 296 296 296 295 295 294
227 227 228 230 231 229 228 229 230 230 231 232 234 236 236 234 232 232 232 233 233 232 230 230 232 230 227 228 232 239 244 246 246 247 247 247 247 247 248 250 250 250 250 252 253 255 256 258 260 262 264 266 268 269 270 272 273 275 277 278 280 282 284 285 287 288 289 290 291 292 293 294 294 295 295 294 294 294 293 293 292 292 291 291 292
224 225 227 230 231 229 226 226 228 229 230 231 233 235 236 236 234 234 232 231 231 231 230 230 232 233 232 232 233 236 240 243 245 244 244 244 246 246 246 247 249 250 252 254 255 256 257 258 260 262 264 266 268 271 273 275 277 279 280 282 284 285 286 288 289 290 291 291 292 292 292 293 292 292 291 290 290 290 290 290 290 291 293 295 296
222 224 226 229 231 229 226 225 226 227 229 231 232 232 234 236 236 236 235 231 229 230 230 230 230 232 233 234 234 235 236 239 242 242 241 243 246 248 249 250 251 252 254 255 257 258 259 260 261 263 265 267 269 272 275 278 280 282 283 285 286 287 288 289 290 290 290 290 290 289 289 289 288 287 287 287 287 288 290 291 293 295 296 297 298
221 224 226 228 231 232 230 227 225 225 228 230 230 230 233 235 237 238 238 234 231 230 231 231 231 232 233 234 234 234 235 237 239 241 242 243 245 249 252 253 255 256 256 257 259 260 261 262 264 265 266 268 271 274 277 280 282 284 285 286 286 287 287 287 287 287 286 286 285 285 285 285 285 285 286 287 288 290 292 294 295 297 298 298 299
220 223 225 226 229 232 233 231 227 226 227 228 228 229 232 235 237 240 241 239 236 233 232 233 233 234 235 236 237 236 236 237 239 241 243 245 248 252 254 255 256 259 260 261 263 264 264 265 266 267 269 271 273 276 279 281 282 282 282 282 283 282 282 281 281 281 281 281 281 282 283 285 286 287 289 290 292 293 295 296 297 298 299 299 300
216 219 221 223 226 230 234 235 232 228 227 228 229 230 232 236 239 242 243 243 241 238 236 235 235 236 238 240 242 242 241 241 241 243 245 247 251 255 257 258 259 262 264 266 267 268 269 269 270 271 272 273 274 276 277 278 278 278 278 278 277 277 277 277 277 279 280 281 283 285 287 288 290 291 293 294 295 296 297 298 298 299 299 300 301
215 218 220 221 223 226 231 235 235 233 232 231 231 232 234 237 240 243 244 245 244 242 240 239 239 239 240 242 245 247 247 247 247 246 247 249 252 255 258 259 261 263 266 267 269 270 271 272 273 274 274 274 274 274 275 275 275 275 275 275 276 277 278 280 281 283 285 286 287 289 290 292 293 294 295 296 297 298 298 299 299 300 300 301 301
214 217 219 221 222 224 227 231 235 236 236 236 235 234 235 237 240 242 244 246 245 244 243 243 243 243 243 244 246 248 250 251 252 252 252 252 254 256 258 261 263 265 268 269 270 271 271 272 272 273 273 274 274 274 274 275 275 276 277 278 279 281 282 284 285 286 288 289 290 291 292 293 294 295 296 296 297 298 298 299 299 300 300 301 301
213 216 218 221 223 225 227 229 232 235 237 238 239 239 240 241 242 244 245 246 247 247 246 247 247 248 248 248 249 250 252 254 255 256 257 258 259 260 262 264 266 267 269 271 272 273 273 274 274 274 274 275 275 275 276 276 277 278 279 280 281 283 284 285 287 288 289 290 291 292 293 294 294 295 295 296 297 297 298 298 298 299 299 300 300
211 213 216 220 223 227 230 232 233 235 237 239 240 242 243 245 247 249 250 250 250 250 250 250 251 252 253 253 253 253 254 255 257 259 260 261 262 264 265 266 268 269 270 271 272 273 274 275 275 276 277 277 278 278 278 279 279 280 281 282 284 285 286 287 288 289 290 291 292 293 293 294 294 295 295 296 296 296 297 297 298 298 299 300 301
209 210 212 214 218 223 228 231 235 237 238 239 240 242 244 246 249 251 253 254 255 255 255 255 255 256 257 257 257 257 257 258 258 260 261 262 264 265 267 268 269 271 272 273 273 274 274 275 276 277 278 279 280 281 281 282 283 283 284 285 286 287 288 288 289 290 291 291 292 292 292 293 294 294 295 295 296 296 297 297 298 299 300 301 302
210 213 215 217 219 222 225 228 232 235 238 239 241 242 244 246 248 251 253 255 257 258 258 259 259 260 261 262 262 262 262 262 262 262 262 263 264 266 267 269 271 272 273 274 275 275 276 277 278 279 280 281 282 282 283 284 284 285 286 287 287 288 289 289 290 290 291 291 291 291 292 293 293 294 294 295 296 297 298 299 300 301 302 303 303
214 216 219 221 223 225 228 231 234 237 240 242 244 245 246 247 249 250 253 255 256 257 258 259 260 260 262 263 264 265 265 266 266 266 266 266 267 268 269 270 271 273 274 275 276 277 278 279 280 281 281 282 283 283 284 285 286 286 287 288 288 289 289 289 290 290 290 291 291 292 292 293 294 295 295 296 298 299 300 301 302 303 303 303 304
221 222 224 226 227 229 231 233 236 238 241 243 245 247 248 250 251 252 253 254 255 256 257 258 259 260 261 263 264 265 266 267 268 268 269 269 270 270 271 272 272 273 274 276 277 278 279 280 281 282 282 283 283 284 285 285 286 287 287 287 288 288 289 289 290 290 290 291 291 292 293 294 295 296 297 298 299 300 301 302 303 303 304 304 303
232 231 231 233 235 237 238 239 240 242 245 247 249 252 254 256 257 258 259 259 259 259 260 261 262 263 265 266 267 268 269 270 271 271 272 273 273 274 274 275 276 276 277 278 279 280 280 281 282 283 283 284 284 284 285 286 286 286 287 287 288 288 289 289 290 290 291 292 293 294 295 296 297 298 299 300 300 301 302 303 303 303 303 303 303
Height
10921 10921 10920 10919 10917 10915 10912 10910 10908 10907 10906 10906 10906 10907 10908 10909 10910 10911 10912 10913 10914 10914 10915 10916 10917 10917 10918 10919 10920 10921 10922 10923 10924 10925 10926 10927 10928 10930 10931 10933 10935 10937 10940 10942 10945 10947 10949 10951 10952 10954 10955 10957 10958 10960 10961 10962 10963 10965 10966 10967 10969 10970 10971 10972 10974 10975 10976 10977 10977 10978 10978 10978 10979 10980 10981 10981 10982 10983 10984 10984 10985 10985 10985 10985 10985
10920 10920 10919 10918 10917 10915 10913 10911 10909 10908 10907 10907 10907 10908 10909 10910 10911 10912 10913 10914 10915 10915 10916 10917 10917 10918 10919 10920 10921 10922 10923 10924 10925 10927 10928 10929 10931 10932 10934 10935 10937 10939 10941 10944 10946 10948 10950 10952 10954 10955 10957 10958 10960 10961 10962 10963 10965 10966 10968 10969 10970 10971 10973 10974 10975 10976 10977 10978 10978 10979 10979 10979 10979 10980 10980 10981 10982 10982 10983 10984 10984 10985 10985 10984 10984
10918 10919 10919 10918 10917 10915 10914 10912 10911 10909 10908 10907 10908 10909 10910 10911 10912 10913 10914 10915 10916 10917 10918 10918 10919 10920 10920 10921 10922 10923 10925 10926 10927 10929 10930 10932 10933 10935 10936 10937 10939 10941 10943 10946 10948 10950 10952 10954 10955 10957 10959 10960 10961 10962 10963 10965 10967 10968 10969 10970 10971 10972 10974 10975 10976 10977 10978 10978 10979 10979 10979 10979 10979 10980 10980 10980 10981 10982 10982 10983 10983 10984 10984 10984 10984
10917 10918 10918 10917 10917 10916 10914 10912 10911 10910 10909 10908 10908 10909 10910 10911 10913 10914 10916 10917 10918 10919 10920 10921 10921 10922 10922 10922 10923 10924 10926 10927 10929 10930 10932 10934 10935 10937 10938 10939 10941 10943 10945 10947 10950 10952 10954 10956 10957 10959 10960 10961 10962 10963 10965 10967 10968 10969 10971 10972 10973 10974 10975 10976 10977 10977 10978 10979 10979 10979 10979 10979 10980 10980 10980 10980 10981 10981 10981 10982 10982 10983 10983 10983 10983
10916 10917 10917 10916 10916 10915 10914 10913 10911 10911 10911 10910 10909 10909 10910 10912 10913 10915 10917 10918 10920 10921 10922 10923 10923 10924 10924 10924 10924 10925 10927 10928 10930 10931 10933 10935 10937 10938 10940 10941 10943 10945 10947 10949 10951 10953 10955 10957 10959 10960 10961 10962 10964 10965 10966 10968 10969 10970 10971 10973 10974 10975 10976 10976 10977 10977 10978 10978 10979 10979 10979 10979 10980 10980 10980 10980 10980 10980 10980 10981 10981 10981 10981 10981 10981
10915 10916 10915 10915 10915 10915 10914 10913 10912 10911 10911 10911 10910 10910 10911 10912 10914 10916 10918 10919 10921 10922 10923 10924 10925 10925 10925 10925 10925 10927 10928 10929 10931 10932 10934 10935 10937 10939 10941 10943 10945 10946 10948 10950 10952 10954 10956 10958 10960 10961 10963 10964 10965 10967 10968 10969 10971 10971 10973 10974 10975 10976 10976 10977 10977 10978 10978 10978 10979 10979 10979 10979 10979 10979 10979 10979 10979 10979 10979 10979 10979 10979 10979 10978 10978
10914 10914 10914 10914 10914 10914 10914 10913 10912 10911 10911 10912 10912 10912 10912 10913 10914 10916 10918 10920 10922 10923 10924 10925 10925 10926 10926 10927 10927 10928 10929 10930 10931 10932 10934 10936 10937 10939 10942 10944 10946 10948 10949 10951 10953 10955 10957 10959 10961 10963 10964 10965 10967 10968 10969 10970 10971 10972 10974 10974 10975 10976 10976 10976 10977 10977 10978 10978 10979 10979 10979 10978 10978 10978 10978 10978 10978 10977 10977 10978 10978 10977 10977 10976 10975
10911 10911 10911 10912 10913 10913 10913 10912 10912 10911 10911 10912 10913 10913 10914 10914 10915 10916 10918 10920 10922 10923 10925 10926 10926 10927 10927 10928 10929 10929 10930 10930 10931 10932 10934 10936 10937 10940 10942 10945 10947 10949 10951 10953 10955 10957 10959 10961 10962 10964 10965 10966 10968 10969 10970 10971 10972 10973 10974 10975 10975 10976 10976 10976 10977 10977 10977 10978 10978 10978 10978 10978 10977 10977 10977 10976 10976 10976 10976 10975 10975 10975 10974 10973 10973
10908 10908 10908 10910 10910 10911 10911 10912 10912 10911 10911 10911 10912 10913 10915 10916 10917 10917 10919 10920 10922 10924 10925 10927 10927 10928 10929 10929 10930 10931 10931 10932 10933 10933 10935 10936 10938 10941 10943 10946 10948 10951 10952 10954 10956 10958 10959 10961 10962 10964 10965 10967 10968 10969 10970 10971 10972 10973 10973 10974 10975 10975 10976 10976 10976 10977 10977 10977 10977 10977 10977 10976 10976 10975 10975 10975 10974 10974 10973 10973 10972 10972 10971 10970 10970
10905 10905 10906 10908 10908 10909 10910 10911 10912 10912 10911 10911 10912 10913 10914 10916 10918 10919 10919 10920 10922 10924 10926 10927 10929 10929 10930 10931 10931 10932 10933 10934 10934 10935 10936 10938 10940 10943 10945 10947 10949 10951 10953 10955 10956 10958 10959 10960 10962 10963 10965 10966 10967 10968 10969 10970 10971 10972 10972 10973 10973 10974 10975 10975 10975 10975 10975 10975 10975 10975 10975 10974 10974 10973 10973 10973 10972 10972 10971 10970 10969 10969 10968 10967 10966
10903 10904 10905 10906 10907 10908 10908 10910 10911 10912 10912 10912 10912 10913 10914 10915 10917 10919 10920 10921 10922 10923 10925 10927 10929 10931 10932 10933 10933 10934 10935 10936 10936 10937 10939 10940 10943 10945 10947 10948 10950 10952 10953 10955 10956 10958 10959 10960 10961 10963 10964 10965 10966 10967 10968 10969 10970 10971 10971 10972 10972 10973 10973 10974 10974 10974 10974 10974 10974 10973 10973 10972 10971 10971 10971 10970 10970 10969 10968 10967 10967 10966 10965 10964 10963
10900 10902 10903 10905 10906 10907 10908 10909 10910 10911 10912 10912 10912 10913 10914 10915 10917 10918 10920 10921 10922 10923 10925 10927 10929 10932 10933 10935 10936 10936 10937 10938 10939 10940 10941 10943 10944 10946 10948 10949 10951 10953 10954 10955 10957 10958 10959 10960 10961 10962 10963 10964 10965 10966 10967 10967 10968 10969 10970 10970 10971 10971 10972 10972 10972 10972 10972 10972 10972 10971 10970 10969 10969 10968 10968 10967 10966 10966 10965 10964 10963 10962 10961 10960 10959
10898 10900 10902 10903 10904 10906 10907 10908 10909 10911 10912 10912 10913 10914 10915 10916 10917 10919 10920 10922 10923 10924 10925 10927 10929 10932 10934 10936 10938 10939 10940 10941 10942 10942 10944 10945 10946 10947 10948 10950 10952 10953 10954 10955 10956 10957 10957 10959 10960 10961 10962 10963 10963 10964 10965 10966 10967 10968 10969 10969 10969 10969 10970 10970 10970 10970 10970 10969 10969 10968 10967 10966 10966 10965 10964 10964 10963 10962 10961 10960 10959 10957 10956 10955 10954
10897 10899 10901 10902 10904 10905 10906 10907 10908 10910 10911 10912 10912 10913 10915 10916 10917 10919 10921 10922 10923 10924 10925 10927 10929 10932 10934 10937 10939 10940 10942 10943 10944 10945 10946 10946 10947 10948 10949 10950 10951 10953 10954 10954 10955 10956 10957 10958 10959 10960 10961 10961 10962 10963 10964 10965 10965 10966 10967 10967 10967 10967 10967 10967 10967 10967 10967 10967 10966 10965 10964 10963 10962 10961 10961 10960 10959 10957 10956 10955 10954 10953 10951 10950 10949
10896 10898 10900 10901 10903 10904 10905 10906 10907 10909 10910 10911 10911 10912 10913 10915 10916 10918 10921 10923 10924 10925 10926 10927 10929 10932 10934 10936 10939 10941 10942 10944 10945 10946 10947 10948 10948 10949 10949 10950 10951 10951 10952 10953 10954 10955 10956 10957 10958 10959 10960 10960 10961 10962 10963 10963 10964 10964 10965 10965 10965 10965 10965 10964 10964 10964 10964 10963 10962 10961 10960 10959 10958 10957 10956 10955 10954 10952 10951 10950 10948 10947 10946 10944 10943
10890 10894 10897 10898 10901 10903 10904 10904 10906 10907 10908 10909 10910 10910 10911 10913 10915 10917 10919 10922 10924 10925 10926 10927 10929 10931 10933 10935 10938 10940 10942 10943 10945 10946 10947 10947 10948 10948 10949 10950 10950 10950 10951 10951 10952 10953 10954 10956 10957 10958 10959 10960 10961 10961 10961 10961 10961 10961 10961 10962 10962 10962 10961 10961 10960 10960 10959 10958 10957 10956 10956 10955 10954 10952 10951 10950 10948 10947 10945 10944 10943 10941 10940 10938 10937
10883 10887 10890 10892 10895 10898 10900 10902 10903 10905 10906 10907 10908 10909 10910 10911 10912 10914 10917 10920 10922 10924 10925 10927 10928 10930 10931 10933 10936 10938 10939 10941 10943 10944 10945 10946 10946 10947 10948 10949 10950 10950 10950 10950 10951 10952 10953 10955 10956 10957 10958 10958 10959 10959 10959 10958 10958 10958 10958 10958 10958 10958 10957 10956 10956 10955 10955 10954 10953 10952 10951 10949 10949 10947 10946 10944 10943 10941 10940 10938 10937 10935 10934 10933 10931
10880 10882 10885 10887 10890 10893 10895 10898 10900 10902 10903 10904 10906 10908 10909 10909 10910 10913 10915 10917 10919 10921 10923 10925 10926 10928 10929 10931 10933 10935 10937 10939 10940 10942 10943 10944 10945 10945 10946 10947 10948 10949 10949 10949 10950 10951 10952 10953 10954 10955 10955 10956 10956 10956 10956 10955 10954 10954 10955 10955 10954 10954 10953 10952 10951 10951 10950 10949 10948 10947 10945 10945 10944 10942 10940 10939 10938 10936 10935 10933 10931 10930 10928 10927 10926
10873 10877 10881 10883 10886 10888 10891 10893 10896 10898 10899 10901 10903 10905 10906 10907 10907 10908 10909 10911 10914 10917 10920 10922 10923 10925 10927 10929 10931 10933 10935 10937 10938 10940 10941 10942 10943 10943 10944 10945 10945 10946 10947 10947 10948 10949 10950 10951 10952 10953 10953 10953 10953 10953 10952 10951 10951 10951 10951 10951 10950 10949 10948 10947 10947 10946 10945 10944 10943 10941 10940 10941 10939 10936 10935 10934 10933 10931 10929 10927 10926 10924 10923 10921 10920
10865 10869 10874 10878 10881 10884 10887 10889 10891 10894 10895 10897 10899 10901 10902 10903 10904 10905 10905 10907 10911 10914 10916 10918 10920 10922 10923 10926 10928 10930 10932 10934 10936 10938 10939 10940 10941 10941 10942 10942 10943 10944 10944 10944 10944 10946 10947 10948 10949 10949 10950 10950 10950 10950 10949 10947 10947 10947 10947 10946 10946 10945 10944 10942 10941 10940 10939 10938 10937 10934 10934 10935 10934 10930 10929 10929 10927 10925 10924 10922 10920 10919 10917 10915 10913
10860 10863 10867 10871 10875 10878 10882 10885 10887 10890 10892 10894 10896 10897 10898 10899 10900 10902 10904 10907 10911 10913 10914 10915 10916 10918 10920 10921 10924 10926 10929 10931 10933 10935 10937 10938 10939 10939 10940 10940 10940 10941 10941 10941 10941 10942 10943 10944 10945 10945 10946 10947 10947 10946 10944 10942 10943 10943 10942 10942 10942 10940 10937 10935 10934 10934 10934 10932 10930 10928 10928 10928 10927 10925 10923 10922 10921 10919 10918 10916 10914 10912 10910 10908 10906
10855 10858 10861 10865 10869 10873 10876 10880 10883 10886 10889 10891 10893 10893 10895 10896 10897 10898 10902 10906 10911 10913 10911 10908 10908 10910 10912 10915 10919 10922 10924 10927 10930 10932 10934 10935 10936 10937 10937 10937 10937 10938 10938 10937 10938 10938 10939 10940 10940 10940 10941 10942 10942 10941 10940 10938 10938 10938 10937 10937 10938 10935 10931 10928 10927 10928 10928 10925 10922 10922 10922 10921 10919 10918 10916 10915 10913 10912 10910 10909 10907 10905 10903 10901 10898
10849 10852 10856 10859 10863 10867 10871 10874 10879 10882 10885 10887 10889 10890 10891 10893 10894 10895 10899 10905 10909 10909 10906 10903 10902 10903 10904 10909 10914 10917 10920 10922 10925 10927 10930 10931 10932 10933 10933 10933 10933 10933 10933 10933 10934 10935 10935 10935 10935 10935 10936 10936 10936 10936 10936 10934 10933 10933 10931 10931 10932 10931 10927 10922 10920 10921 10921 10917 10915 10916 10917 10915 10912 10910 10909 10907 10906 10904 10902 10901 10900 10898 10896 10893 10891
10841 10845 10849 10852 10856 10861 10865 10869 10873 10878 10881 10883 10885 10886 10887 10889 10891 10892 10896 10901 10904 10902 10899 10899 10901 10902 10904 10907 10910 10913 10915 10918 10920 10922 10925 10926 10928 10928 10928 10928 10928 10928 10929 10929 10930 10930 10930 10930 10930 10930 10930 10930 10931 10931 10931 10929 10928 10928 10927 10925 10925 10925 10923 10919 10915 10914 10913 10911 10909 10909 10910 10909 10906 10904 10902 10900 10898 10896 10894 10893 10892 10890 10888 10885 10881
10833 10837 10842 10847 10850 10854 10859 10863 10867 10872 10877 10880 10881 10882 10884 10885 10887 10889 10892 10895 10896 10893 10892 10895 10899 10901 10903 10906 10907 10909 10912 10913 10915 10917 10919 10921 10922 10923 10923 10923 10923 10923 10924 10925 10925 10925 10925 10925 10925 10925 10925 10925 10926 10926 10926 10924 10923 10922 10921 10920 10919 10918 10917 10914 10911 10907 10906 10906 10904 10902 10901 10901 10899 10897 10895 10893 10891 10889 10887 10885 10884 10882 10879 10875 10872
10826 10830 10835 10840 10844 10847 10852 10857 10861 10866 10871 10874 10876 10878 10880 10881 10883 10885 10888 10890 10889 10888 10890 10894 10896 10898 10901 10903 10904 10906 10908 10910 10911 10913 10914 10916 10916 10917 10918 10918 10918 10918 10919 10919 10919 10919 10919 10919 10919 10919 10920 10920 10921 10921 10920 10919 10919 10918 10917 10915 10914 10912 10909 10907 10904 10901 10900 10900 10899 10897 10895 10894 10892 10891 10889 10886 10884 10882 10879 10877 10875 10873 10870 10867 10864
10819 10823 10828 10833 10837 10841 10845 10850 10855 10860 10864 10868 10871 10873 10875 10877 10878 10880 10883 10885 10885 10886 10890 10893 10894 10895 10898 10900 10901 10903 10905 10906 10907 10908 10909 10910 10911 10912 10913 10913 10913 10913 10912 10912 10913 10914 10913 10913 10914 10913 10914 10914 10915 10916 10916 10914 10914 10913 10911 10909 10907 10904 10902 10899 10896 10894 10894 10894 10893 10892 10891 10888 10886 10884 10882 10879 10876 10874 10872 10870 10867 10864 10862 10858 10855
10811 10815 10820 10825 10829 10834 10838 10843 10848 10853 10858 10862 10865 10867 10870 10872 10873 10875 10877 10879 10882 10887 10891 10892 10891 10892 10894 10896 10897 10899 10900 10901 10902 10903 10904 10905 10906 10907 10907 10908 10908 10908 10907 10907 10908 10908 10907 10907 10908 10908 10908 10909 10910 10910 10910 10909 10908 10906 10904 10902 10900 10898 10896 10894 10891 10889 10888 10887 10886 10885 10884 10881 10879 10877 10874 10871 10868 10866 10863 10861 10859 10856 10853 10850 10846
10803 10808 10812 10817 10821 10826 10832 10837 10841 10846 10851 10855 10859 10862 10865 10868 10869 10871 10873 10877 10881 10885 10887 10887 10887 10887 10890 10892 10893 10894 10895 10896 10896 10897 10898 10899 10900 10901 10902 10902 10902 10903 10903 10902 10903 10903 10902 10902 10902 10902 10902 10903 10903 10904 10904 10903 10901 10898 10896 10895 10895 10893 10891 10889 10887 10886 10883 10881 10879 10877 10876 10874 10873 10870 10867 10863 10861 10858 10855 10853 10851 10848 10845 10841 10837
10795 10799 10804 10808 10813 10818 10823 10828 10833 10838 10843 10848 10852 10856 10860 10863 10865 10867 10870 10874 10878 10879 10880 10882 10882 10882 10884 10886 10887 10888 10890 10891 10890 10891 10892 10893 10894 10895 10895 10896 10896 10897 10897 10897 10897 10897 10897 10896 10896 10896 10896 10896 10897 10898 10897 10895 10893 10892 10891 10889 10888 10887 10885 10883 10883 10881 10878 10876 10873 10870 10868 10867 10865 10863 10859 10856 10853 10850 10847 10845 10842 10839 10836 10832 10828
10786 10790 10794 10799 10803 10808 10814 10819 10824 10830 10836 10841 10845 10850 10854 10857 10860 10863 10865 10869 10871 10872 10873 10876 10877 10877 10878 10880 10880 10881 10884 10884 10883 10883 10884 10885 10887 10888 10888 10889 10889 10889 10889 10890 10890 10890 10890 10889 10889 10889 10889 10890 10890 10890 10890 10888 10886 10886 10885 10883 10881 10880 10878 10877 10876 10874 10872 10870 10867 10863 10861 10859 10857 10854 10851 10847 10844 10841 10838 10836 10833 10830 10826 10822 10817
10776 10781 10785 10790 10795 10800 10805 10811 10817 10822 10828 10834 10838 10843 10846 10850 10853 10857 10860 10862 10863 10864 10866 10868 10870 10871 10873 10874 10873 10873 10874 10874 10874 10874 10876 10877 10880 10881 10881 10881 10882 10882 10882 10882 10882 10882 10882 10882 10882 10882 10882 10882 10882 10882 10881 10880 10879 10878 10876 10875 10873 10872 10870 10869 10868 10867 10865 10863 10859 10856 10853 10850 10848 10845 10842 10838 10834 10832 10829 10827 10823 10820 10815 10809 10805
10767 10772 10777 10782 10786 10791 10797 10804 10810 10815 10820 10825 10830 10834 10838 10842 10847 10850 10853 10855 10858 10859 10861 10863 10864 10864 10864 10864 10864 10865 10866 10866 10866 10867 10868 10869 10871 10872 10873 10874 10874 10874 10874 10875 10875 10875 10875 10875 10875 10874 10874 10874 10873 10873 10873 10873 10872 10870 10869 10867 10866 10864 10862 10861 10860 10859 10857 10855 10852 10849 10845 10841 10838 10835 10831 10827 10823 10821 10819 10816 10814 10810 10804 10798 10793
10759 10764 10769 10774 10778 10783 10789 10795 10802 10807 10812 10817 10822 10826 10830 10836 10841 10843 10845 10850 10854 10855 10855 10856 10856 10855 10855 10855 10855 10857 10858 10859 10860 10861 10861 10862 10863 10864 10865 10866 10866 10867 10867 10867 10868 10868 10868 10867 10867 10867 10867 10866 10866 10866 10866 10866 10864 10863 10861 10860 10858 10856 10854 10853 10852 10850 10848 10845 10843 10840 10837 10833 10829 10825 10820 10816 10812 10810 10807 10805 10802 10798 10793 10787 10782
10752 10757 10762 10767 10771 10776 10781 10787 10793 10799 10803 10808 10813 10817 10822 10829 10834 10835 10835 10839 10843 10844 10844 10844 10844 10844 10845 10846 10846 10848 10850 10851 10853 10854 10855 10856 10856 10857 10858 10858 10859 10859 10860 10860 10860 10860 10860 10860 10860 10860 10859 10859 10859 10859 10858 10858 10856 10854 10853 10852 10850 10848 10846 10845 10844 10841 10838 10835 10833 10830 10827 10823 10820 10816 10811 10806 10802 10799 10796 10793 10790 10786 10782 10777 10772
10746 10751 10755 10759 10763 10768 10773 10779 10785 10790 10795 10799 10803 10808 10813 10819 10825 10826 10825 10828 10831 10834 10834 10834 10833 10835 10838 10839 10839 10841 10843 10844 10846 10847 10848 10849 10850 10851 10851 10852 10852 10852 10853 10853 10852 10853 10852 10852 10852 10851 10851 10851 10852 10851 10851 10849 10847 10846 10845 10843 10841 10839 10838 10837 10836 10832 10828 10825 10822 10819 10816 10812 10808 10804 10800 10795 10790 10787 10784 10782 10779 10776 10772 10768 10762
10741 10745 10748 10752 10755 10759 10765 10771 10776 10782 10787 10792 10796 10800 10805 10810 10815 10818 10818 10820 10824 10827 10828 10828 10828 10831 10834 10834 10835 10836 10837 10838 10839 10840 10841 10842 10843 10844 10845 10845 10845 10846 10846 10845 10845 10845 10845 10845 10844 10844 10843 10843 10844 10843 10842 10841 10839 10838 10836 10834 10832 10830 10829 10828 10826 10822 10818 10814 10811 10807 10804 10801 10797 10793 10788 10783 10779 10776 10774 10772 10769 10766 10763 10758 10752
10735 10738 10741 10744 10748 10752 10757 10763 10769 10774 10779 10784 10788 10793 10797 10801 10806 10810 10812 10814 10817 10820 10822 10822 10824 10826 10828 10830 10831 10831 10832 10832 10832 10833 10834 10835 10837 10838 10838 10838 10838 10838 10838 10838 10838 10838 10837 10837 10836 10836 10835 10835 10835 10835 10834 10833 10831 10829 10827 10824 10822 10820 10819 10818 10816 10812 10808 10803 10800 10797 10794 10791 10787 10783 10778 10773 10769 10765 10762 10760 10757 10754 10750 10745 10739
10729 10731 10735 10738 10742 10746 10750 10756 10762 10767 10772 10777 10781 10785 10789 10793 10798 10802 10805 10808 10811 10813 10814 10815 10817 10819 10821 10823 10824 10825 10825 10825 10825 10826 10827 10828 10829 10830 10831 10831 10831 10830 10830 10830 10831 10830 10829 10828 10828 10827 10828 10828 10828 10827 10825 10824 10822 10820 10818 10815 10813 10810 10809 10807 10806 10803 10798 10793 10789 10786 10783 10781 10777 10773 10768 10764 10759 10755 10751 10747 10743 10739 10735 10730 10725
10724 10727 10731 10735 10737 10740 10744 10749 10756 10761 10765 10770 10774 10778 10783 10787 10791 10793 10796 10799 10802 10804 10805 10807 10809 10811 10813 10814 10815 10816 10816 10817 10817 10818 10819 10819 10820 10822 10823 10823 10823 10823 10823 10823 10823 10823 10821 10820 10819 10819 10820 10820 10820 10819 10817 10815 10813 10811 10809 10806 10804 10801 10799 10797 10796 10794 10790 10785 10780 10776 10773 10770 10766 10761 10756 10753 10749 10744 10740 10735 10731 10726 10721 10716 10711
10721 10724 10727 10730 10732 10734 10738 10742 10749 10754 10759 10763 10768 10772 10776 10779 10782 10784 10786 10789 10791 10793 10795 10798 10801 10803 10804 10805 10806 10807 10808 10809 10809 10809 10810 10810 10811 10813 10814 10816 10816 10816 10816 10815 10815 10814 10813 10812 10811 10811 10811 10812 10812 10811 10809 10807 10805 10802 10800 10797 10795 10793 10790 10788 10786 10784 10781 10777 10772 10767 10763 10759 10754 10749 10744 10739 10735 10731 10727 10723 10718 10712 10706 10701 10696
10716 10719 10722 10725 10728 10730 10733 10736 10741 10746 10752 10757 10761 10765 10768 10771 10773 10775 10777 10779 10781 10783 10786 10789 10792 10794 10795 10796 10797 10798 10800 10801 10801 10802 10802 10802 10802 10803 10805 10807 10808 10807 10807 10806 10805 10804 10804 10804 10803 10803 10803 10803 10803 10802 10801 10799 10796 10794 10791 10788 10786 10783 10780 10777 10775 10772 10770 10766 10761 10756 10752 10747 10741 10736 10730 10725 10721 10717 10712 10707 10702 10696 10690 10685 10679
10712 10715 10718 10721 10724 10727 10729 10730 10734 10739 10744 10749 10753 10757 10760 10763 10765 10767 10769 10770 10772 10774 10776 10779 10782 10784 10786 10787 10788 10789 10790 10792 10793 10794 10794 10794 10794 10795 10796 10797 10798 10798 10797 10796 10795 10794 10795 10795 10795 10795 10795 10794 10793 10792 10791 10789 10786 10784 10781 10779 10776 10772 10769 10766 10763 10760 10756 10752 10748 10744 10739 10734 10728 10722 10717 10711 10707 10702 10697 10692 10686 10680 10674 10669 10663
10708 10711 10714 10717 10720 10722 10724 10726 10729 10733 10736 10740 10744 10748 10751 10755 10757 10760 10761 10763 10765 10767 10769 10771 10774 10776 10778 10779 10780 10781 10781 10782 10783 10784 10785 10786 10787 10787 10787 10788 10788 10787 10786 10785 10784 10784 10785 10786 10787 10787 10786 10785 10783 10782 10780 10778 10775 10772 10770 10768 10765 10762 10758 10755 10751 10747 10743 10738 10734 10730 10726 10722 10716 10710 10705 10700 10695 10690 10684 10678 10673 10667 10661 10655 10649
10705 10707 10710 10712 10715 10717 10719 10722 10724 10726 10729 10733 10737 10741 10744 10747 10750 10752 10754 10756 10758 10761 10763 10765 10767 10768 10770 10771 10773 10774 10774 10773 10774 10775 10777 10778 10778 10778 10778 10778 10778 10777 10776 10775 10774 10775 10775 10776 10776 10776 10775 10775 10773 10771 10768 10766 10763 10760 10758 10756 10753 10750 10746 10743 10739 10735 10731 10726 10721 10716 10712 10708 10703 10698 10694 10689 10684 10678 10672 10666 10661 10655 10649 10643 10636
10702 10704 10706 10708 10711 10712 10714 10717 10719 10721 10724 10728 10732 10735 10737 10740 10742 10744 10747 10749 10751 10754 10756 10758 10759 10761 10762 10763 10765 10766 10766 10767 10767 10768 10769 10769 10769 10769 10769 10768 10767 10766 10764 10763 10763 10764 10765 10766 10766 10766 10765 10764 10761 10758 10755 10753 10750 10748 10746 10744 10741 10737 10733 10730 10726 10721 10717 10713 10708 10703 10698 10694 10690 10685 10680 10676 10670 10665 10659 10654 10648 10642 10637 10630 10623
10698 10700 10702 10704 10707 10709 10711 10713 10714 10716 10719 10723 10726 10729 10731 10733 10735 10737 10739 10741 10743 10745 10747 10749 10751 10753 10754 10755 10755 10757 10758 10759 10760 10760 10760 10760 10759 10759 10758 10758 10758 10755 10753 10751 10751 10752 10754 10756 10757 10757 10756 10753 10750 10746 10742 10740 10738 10736 10734 10731 10728 10724 10720 10716 10712 10708 10704 10699 10695 10690 10685 10681 10677 10672 10667 10661 10656 10650 10645 10640 10634 10629 10623 10616 10609
10695 10697 10699 10701 10703 10705 10707 10709 10710 10712 10714 10717 10719 10722 10725 10728 10730 10731 10733 10735 10736 10738 10740 10741 10743 10745 10745 10745 10745 10747 10750 10751 10751 10751 10751 10751 10751 10750 10749 10749 10747 10745 10741 10739 10739 10740 10742 10744 10745 10746 10745 10742 10738 10734 10730 10728 10726 10724 10721 10718 10714 10710 10706 10702 10698 10693 10689 10684 10680 10675 10671 10667 10663 10658 10653 10647 10641 10635 10630 10624 10619 10613 10608 10601 10595
10692 10694 10695 10697 10699 10701 10703 10705 10707 10708 10709 10711 10713 10716 10718 10722 10725 10727 10728 10728 10729 10731 10732 10734 10736 10737 10736 10736 10736 10738 10740 10741 10740 10740 10741 10741 10741 10741 10740 10739 10737 10734 10730 10728 10727 10729 10731 10732 10733 10733 10732 10730 10726 10722 10719 10716 10715 10712 10709 10705 10701 10697 10693 10688 10684 10679 10674 10669 10665 10660 10656 10653 10648 10643 10638 10632 10626 10621 10615 10610 10605 10599 10593 10587 10580
10689 10690 10692 10693 10695 10696 10699 10701 10703 10704 10705 10706 10708 10710 10712 10715 10718 10720 10721 10721 10722 10724 10725 10727 10728 10728 10729 10728 10729 10729 10729 10729 10730 10730 10730 10731 10731 10731 10730 10729 10726 10723 10720 10718 10718 10719 10720 10720 10720 10720 10719 10717 10714 10710 10708 10706 10704 10701 10697 10694 10690 10686 10681 10677 10672 10666 10661 10656 10652 10647 10643 10638 10634 10629 10624 10618 10613 10607 10602 10597 10592 10586 10580 10573 10567
10685 10687 10689 10690 10692 10694 10696 10699 10700 10701 10702 10703 10704 10706 10708 10710 10712 10713 10713 10713 10714 10716 10718 10719 10720 10721 10721 10721 10720 10719 10719 10719 10719 10719 10719 10719 10719 10719 10719 10717 10715 10712 10710 10708 10708 10708 10708 10708 10707 10706 10705 10703 10701 10698 10695 10693 10691 10688 10685 10681 10678 10674 10669 10665 10660 10655 10649 10644 10640 10636 10631 10627 10622 10617 10612 10607 10602 10596 10591 10585 10580 10574 10567 10560 10554